Location: Aldenham
(51.6667°N, 0.3500°W)
Time: 09:03:26
(UTC+00:00)

Transit 4A - Visible Passes

Search period start: 17 February 2026 00:00
Search period end: 27 February 2026 00:00
Orbit: 865 x 976 km, 66.8° (Epoch: 16 February)

Date Brightness Start Highest point End Pass type
(mag) Time Alt. Az. Time Alt. Az. Time Alt. Az.
17 Feb 8.4 03:54:17 47° SE 03:54:57 49° ESE 04:00:44 10° NE visible
17 Feb 8.2 05:37:47 22° WSW 05:41:22 46° NW 05:47:14 10° NNE visible
18 Feb 10.4 02:19:41 13° E 02:19:41 13° E 02:21:16 10° ENE visible
18 Feb 7.9 04:03:09 65° SSE 04:03:36 67° ESE 04:09:37 10° NE visible
18 Feb 8.5 05:46:39 19° W 05:50:21 37° NW 05:56:00 10° NNE visible
19 Feb 10.1 02:28:28 18° E 02:28:28 18° E 02:31:00 10° ENE visible
19 Feb 7.7 04:11:57 80° SSW 04:12:19 89° SE 04:18:26 10° NE visible
19 Feb 8.8 05:55:26 16° W 05:59:24 31° NNW 06:04:48 10° NNE visible
20 Feb 9.8 02:37:13 23° E 02:37:13 23° E 02:40:17 10° NE visible
20 Feb 7.7 04:20:41 68° W 04:21:07 71° NW 04:27:13 10° NE visible
20 Feb 9.1 06:04:09 13° WNW 06:08:30 26° NNW 06:13:38 10° NNE visible
21 Feb 9.5 02:45:53 29° ENE 02:45:53 29° ENE 02:49:20 10° NE visible
21 Feb 7.9 04:29:21 52° WNW 04:29:59 55° NW 04:35:59 10° NE visible
21 Feb 9.2 06:12:55 10° WNW 06:17:40 23° NNW 06:22:31 10° NE visible
22 Feb 9.1 02:54:31 36° ENE 02:54:31 36° ENE 02:58:17 10° NE visible
22 Feb 8.3 04:37:59 40° WNW 04:38:54 43° NW 04:44:45 10° NNE visible
22 Feb 9.4 06:22:19 10° WNW 06:26:51 21° NNW 06:31:29 10° NE visible
23 Feb 8.8 03:03:06 43° NE 03:03:06 43° NE 03:07:08 10° NE visible
23 Feb 8.6 04:46:34 32° WNW 04:47:55 35° NNW 04:53:31 10° NNE visible
24 Feb 10.5 01:28:11 12° ENE 01:28:11 12° ENE 01:28:40 10° ENE visible
24 Feb 8.6 03:11:39 48° NE 03:11:39 48° NE 03:15:57 10° NE visible
24 Feb 8.9 04:55:07 25° WNW 04:56:59 30° NNW 05:02:19 10° NNE visible
25 Feb 10.3 01:36:43 15° ENE 01:36:43 15° ENE 01:37:52 10° NE visible
25 Feb 8.5 03:20:11 49° NNE 03:20:11 49° NNE 03:24:43 10° NE visible
25 Feb 9.2 05:03:38 20° WNW 05:06:05 26° NNW 05:11:10 10° NNE visible
26 Feb 10.1 01:45:12 19° NE 01:45:12 19° NE 01:46:53 10° NE visible
26 Feb 8.5 03:28:40 45° N 03:28:40 45° N 03:33:30 10° NE visible
26 Feb 9.4 05:12:08 16° NW 05:15:16 23° NNW 05:20:05 10° NE visible
